Regional Weather Roundup
Issued by NWS

Home | Current Version | Previous Version | Text Only | Print | Product List | Glossary On
Versions: 1 2 3 4 5 6 7 8 9 10 11 12 13 14 15 16 17 18 19 20 21 22 23 24 25 26 27 28 29 30 31 32 33 34 35 36 37 38 39 40 41 42 43 44 45 46 47 48 49 50
000
ASUS43 KOAX 020902
RWRNE

WEATHER ROUNDUP FOR NEBRASKA
NATIONAL WEATHER SERVICE OMAHA NE
400 AM CDT THU OCT 02 2014

NOTES: SATELLITE DATA IS BEING USED TO AUGMENT CLOUD COVER ABOVE
       12000 FEET.
       "FAIR" INDICATES FEW OR NO CLOUDS BELOW 12,000 FEET WITH NO
       SIGNIFICANT WEATHER AND/OR OBSTRUCTIONS TO VISIBILITY.

  * THESE STATIONS DO NOT REPORT WEATHER SUCH AS RAIN...SNOW OR FOG.

NEZ001>004-019>022-054>056-021000-
NEBRASKA PANHANDLE

CITY           SKY/WX    TMP DP  RH WIND       PRES   REMARKS
SCOTTSBLUFF    PTCLDY    40  39  97 NW6       30.06F
ALLIANCE       CLOUDY    44  44 100 W7        30.03R
CHADRON        CLEAR     42  40  92 SW8       30.03S
KIMBALL        PTCLDY    39  38  96 NW8       30.05S WCI  34
SIDNEY         CLOUDY    45  42  89 NW12      30.05S
$$

NEZ057>060-069>072-079>082-021000-
SOUTHWEST NEBRASKA

CITY           SKY/WX    TMP DP  RH WIND       PRES   REMARKS
NORTH PLATTE   LGT RAIN  50  48  93 N7        29.94F
IMPERIAL       CLOUDY    50  47  89 NW9       29.99R
LEXINGTON      LGT RAIN  53  51  94 N8        29.95R
MCCOOK         CLOUDY    52  49  89 NE16      29.92S
OGALLALA       CLOUDY    48  46  93 NW6       30.00S
$$

NEZ005>010-023>029-035>040-094-021000-
NORTH CENTRAL NEBRASKA

CITY           SKY/WX    TMP DP  RH WIND       PRES   REMARKS
VALENTINE      CLOUDY    49  47  93 W3        29.96F
AINSWORTH      CLOUDY    49  49  99 CALM      29.95F
BROKEN BOW     LGT RAIN  52  50  93 N14G25    29.91R
O`NEILL        RAIN      52  52  98 N12G17    29.93F
ORD            LGT RAIN  52  50  93 N13       29.88F
THEDFORD       CLOUDY    50  48  93 NW9       29.97S
$$

NEZ041-046>049-061>064-073>077-083>087-021000-
SOUTH CENTRAL NEBRASKA

CITY           SKY/WX    TMP DP  RH WIND       PRES   REMARKS
GRAND ISLAND   CLOUDY    56  54  93 N18G26    29.84F
AURORA         CLOUDY    57  55  95 N17G26    29.81F
HASTINGS       CLOUDY    55  51  86 N22       29.83S
HEBRON         CLOUDY    61  57  86 N25G33    29.77R VSB 1
HOLDREGE       CLOUDY    53  50  89 NW13G18   29.91R
KEARNEY *      CLOUDY    54  48  82 NW16      29.88R
YORK           LGT RAIN  57  55  94 N12G20    29.81F
$$

NEZ011>018-030>034-042>045-021000-
NORTHEAST NEBRASKA

CITY           SKY/WX    TMP DP  RH WIND       PRES   REMARKS
NORFOLK        RAIN      57  53  86 NW17      29.85R
ALBION         HVY RAIN  53  51  92 N15       29.90F
BLAIR          FOG       64  63  95 CALM      29.77S VSB 3/4
COLUMBUS *     CLOUDY    59  52  77 NW20G25   29.85R
FREMONT        CLOUDY    64  62  94 CALM      29.77S FOG
TEKAMAH        MOCLDY    63  61  93 N3        29.76F FOG
WAYNE          CLOUDY    56  53  89 N7        29.81F
$$

NEZ050>053-065>068-078-088>093-021000-
SOUTHEAST NEBRASKA

CITY           SKY/WX    TMP DP  RH WIND       PRES   REMARKS
LINCOLN        CLOUDY    64  61  90 N7        29.77S FOG
OMAHA EPPLEY   FOG       64  63  96 SE5       29.77R VSB 1/4
BEATRICE       CLOUDY    65  64  97 E5        29.72F FOG
FALLS CITY     CLOUDY    65  64  97 E5        29.72F
NEBRASKA CITY  CLOUDY    66  66 100 CALM      29.74F FOG
PLATTSMOUTH    FOG       64  63  94 CALM      29.76S VSB 3/4
$$

NEZ044-045-051>053-067-021000-
OMAHA AREA

CITY           SKY/WX    TMP DP  RH WIND       PRES   REMARKS
OMAHA EPPLEY   FOG       64  63  96 SE5       29.77R VSB 1/4
BLAIR          FOG       64  63  95 CALM      29.77S VSB 3/4
FREMONT        CLOUDY    64  62  94 CALM      29.77S FOG
MILLARD        FOG       65  64  97 SE3       29.76S VSB 1/4
OFFUTT AFB     FOG       64  64 100 E2        29.76S VSB 1/2
PLATTSMOUTH    FOG       64  63  94 CALM      29.76S VSB 3/4
WAHOO          CLOUDY    62  59  90 N3        29.77F FOG
$$


USA.gov is the U.S. government's official web portal to all federal, state and local government web resources and services.